map of OMH home
OMH - Airport
Location
City:  Orumiyeh, Azarbayjan-e Gharbi, Iran
Near (Alt.):Uromiyeh, Urmieh
ICAO:OITR
IATA:OMH

Details
Type:Airport (Aerodrome, Airfield)
Use:Public/Civil, Military
Latitude:3740'05"N (37.668122)
Longitude:4504'07"E (45.068703)
Datum:WGS 1984
Elevation:4343 ft (1324 m)
Variation:5.65E (WMM2015v2 magnetic declination)
0.07 annual change
Runways:1
Longest:10658 × 148 ft (3249 × 45 m), paved

Time
Time Zone:UTC+3:30 (DST+4:30)
Local Time:

Weather
METAR:OITR 041400Z 02006KT 9999 FEW040 05/M06 Q1027
TAF:OITR 041100Z 0412/0518 30006KT 7000 FEW035= TAF OIIE 041100Z 0412/0518 30010KT CAVOK
TEMPO 0412/0418 30020KT
BECMG 0506/0508 14008KT

Related Locations
Nearby:
Farthest:GMR: 11425 mi / 18387 km
Mangareva [Totegegie], Gambier Islands, PF

Find:

   beyond  
but within

Other Information
Maps:
NOTAMs:
Links:
Sources:

  
  • flag of Iran
  

Sectional Chart

Flight Planning
at skyvector.com

Satellite Image

Google Maps Satellite view

 

Copyright © 2004-2019 Karl L. Swartz. All rights reserved.
The Great Circle Mapper name and logo are trademarks of the Great Circle Mapper.
All other trademarks mentioned herein belong to their respective owners.
Please see credits for attibutions and further copyright information.

  Follow gcmap on Facebook Follow gcmap on Twitter GCmap on LinkedIn

hCard Microformat

Geo Microformat